Regional Weather Roundup
Issued by NWS Cleveland, OH

Home | Current Version | Previous Version | Text Only | Print | Product List | Glossary Off
Versions: 1 2 3 4 5 6 7 8 9 10 11 12 13 14 15 16 17 18 19 20 21 22 23 24 25 26 27 28 29 30 31 32 33 34 35 36 37 38 39 40 41 42 43 44 45 46 47 48 49 50

000
ASUS41 KCLE 302010
RWRCLE
OHIO REGIONAL WEATHER ROUNDUP
NATIONAL WEATHER SERVICE WILMINGTON, OH
400 PM EDT WED JUL 30 2014

NOTE: "FAIR" INDICATES FEW OR NO CLOUDS BELOW 12,000 FEET WITH NO
SIGNIFICANT WEATHER AND/OR OBSTRUCTIONS TO VISIBILITY.

OHZ001>008-015>018-024>027-034-035-043-044-302100-
   NORTHWEST OHIO

CITY           SKY/WX    TMP DP  RH WIND       PRES   REMARKS
DEFIANCE       SUNNY     77  56  48 W12       29.99F
FINDLAY        MOSUNNY   78  57  48 W17       29.99F
TOLEDO EXPRESS PTSUNNY   76  56  49 NW8       29.97F
TOLEDO METCALF MOSUNNY   76  58  53 NW9       29.99S
LIMA           MOSUNNY   75  57  53 NW13      30.01F
$$

OHZ009>014-019>023-028>033-038-089-302100-
   NORTHEAST OHIO

CITY           SKY/WX    TMP DP  RH WIND       PRES   REMARKS
CLE-HOPKINS    PTSUNNY   73  59  61 SW3       30.01S
CLE-LAKEFRONT  MOSUNNY   72  58  61 N7        29.99R
CUY CO. ARPT   PTSUNNY   77  59  53 NW9       30.01R
LORAIN-ELYRIA  MOSUNNY   74  59  59 N7        30.00S
ASHTABULA      PTSUNNY   70  59  68 NW9       30.00S
AKRON-CANTON   PTSUNNY   73  55  53 SW9       30.02S
WOOSTER        PTSUNNY   70  60  70 S7        30.03S
MANSFIELD      MOSUNNY   74  58  57 W8        30.01F
YOUNGSTOWN     TSTM      70  54  56 W10       30.01S
$$

OHZ042-051>053-060>062-070>072-077>081-302100-
  SOUTHWEST OHIO

CITY           SKY/WX    TMP DP  RH WIND       PRES   REMARKS
CINC-COVINGTON MOSUNNY   78  57  48 W10G21    30.03F
CINC-LUNKEN    MOSUNNY   80  59  48 W14       30.02F
HAMILTON       MOSUNNY   80  61  52 W9G18     30.03F
DAYTON         PTSUNNY   79  57  46 W16G23    30.03F
WRIGHT-PAT AFB MOSUNNY   73  64  72 VRB7      30.02F
DAYTON GENERAL TSTM      70  60  70 N8        30.03R
WILMINGTON     CLOUDY    66  58  75 NE12      30.06R THUNDER
$$

OHZ036-037-039>041-045>050-054>059-063>069-073>076-082>088-302100-
  CENTRAL AND SOUTHEAST OHIO

CITY           SKY/WX    TMP DP  RH WIND       PRES   REMARKS
COLUMBUS       CLOUDY    71  59  65 S8        30.03S
OSU AIRPORT    PTSUNNY   71  60  68 SW10      30.02S
BOLTON FIELD   CLOUDY    70  63  78 S9        30.04F
RICKENBACK AFB CLOUDY    67  58  72 S10       30.04S
NEWARK         LGT RAIN  69  61  75 SW13      30.04R
MARION         MOSUNNY   76  57  51 NW12      30.01S
LANCASTER      CLOUDY    67  61  81 S7        30.05F
ZANESVILLE     PTSUNNY   73  58  59 SW3       30.02S
NEW PHILLY     MOSUNNY   72  60  66 S6        30.02S
$$



USA.gov is the U.S. government's official web portal to all federal, state and local government web resources and services.